Weather History for Auburn, IN

Change the Weather History Date:

Tuesday, November 12, 2013

  Actual Average (KFWA) Record (KFWA)
Temperature  
Mean Temperature 28 °F 43 °F  
Max Temperature 35 °F 52 °F 72 °F (1964)
Min Temperature 21 °F 34 °F 11 °F (1911)
Degree Days  
Heating Degree Days 37 22  
Month to date heating degree days 236  
Since 1 July heating degree days 745  
Cooling Degree Days 0 0  
Month to date cooling degree days 0  
Year to date cooling degree days 809  
Moisture  
Dew Point 20 °F    
Average Humidity 70    
Maximum Humidity 86    
Minimum Humidity 56    
Precipitation  
Precipitation 0.00 in 0.11 in 2.40 in (1992)
Month to date precipitation 1.16  
Year to date precipitation 33.64  
Snow  
Snow 0.00 in 0.10 in 3.90 in (1959)
Month to date snowfall 0.4  
Since 1 July snowfall 0.7  
Since 1 September snowfall 0.7  
Snow Depth -    
Sea Level Pressure  
Sea Level Pressure 30.52 in    
Wind  
Wind Speed 8 mph (NW)    
Max Wind Speed 14 mph    
Max Gust Speed 21 mph    
Visibility 10 miles    
Events      
T = Trace of Precipitation, MM = Missing Value Source: NWS Daily Summary

Daily Weather History Graph

Daily Weather History Graph

Search for Another Location

Airport:

Trip Planner

Search our weather history database for the weather conditions in past years. The results will help you decide how hot, cold, wet, or windy it might be!

Date:

Astronomy

Nov. 12, 2013 Rise Set
Actual Time 7:25 AM EST 5:23 PM EST
Civil Twilight 6:55 AM EST 5:52 PM EST
Nautical Twilight 6:22 AM EST 6:25 PM EST
Astronomical Twilight 5:49 AM EST 6:58 PM EST
Moon 2:39 PM EST (11/12) 2:10 AM EST (11/12)
Length of Visible Light 10h 57m
Length of Day
9h 58m
Waxing Gibbous, 76% of the Moon is Illuminated
Nov 12
Waxing Gibbous
Nov 17
Full
Nov 25
Last Quarter
Dec 2
New
Dec 9
First Quarter

Hourly Weather History & Observations

Time (EST) Temp. Windchill Dew Point Humidity Pressure Visibility Wind Dir Wind Speed Gust Speed Precip Events Conditions
12:15 AM 30.2 °F 20.8 °F 19.4 °F 64% 30.36 in 10.0 mi North 11.5 mph - N/A   Clear
12:35 AM 30.2 °F 22.6 °F 19.4 °F 64% 30.37 in 10.0 mi North 8.1 mph - N/A   Clear
12:55 AM 28.4 °F 20.4 °F 19.4 °F 69% 30.37 in 10.0 mi North 8.1 mph - N/A   Clear
1:15 AM 28.4 °F 19.7 °F 19.4 °F 69% 30.37 in 10.0 mi North 9.2 mph - N/A   Clear
1:35 AM 28.4 °F 19.7 °F 17.6 °F 64% 30.38 in 10.0 mi North 9.2 mph - N/A   Clear
1:55 AM 28.4 °F 20.4 °F 17.6 °F 64% 30.39 in 10.0 mi NNW 8.1 mph - N/A   Clear
2:15 AM 28.4 °F 21.2 °F 17.6 °F 64% 30.40 in 10.0 mi NNW 6.9 mph - N/A   Clear
2:35 AM 28.4 °F 21.2 °F 17.6 °F 64% 30.40 in 10.0 mi NNW 6.9 mph - N/A   Clear
2:55 AM 26.6 °F 18.2 °F 19.4 °F 74% 30.40 in 10.0 mi NNW 8.1 mph - N/A   Clear
3:15 AM 26.6 °F 21.2 °F 19.4 °F 74% 30.41 in 10.0 mi NNW 4.6 mph - N/A   Clear
3:35 AM 26.6 °F 20.0 °F 19.4 °F 74% 30.42 in 10.0 mi NNW 5.8 mph - N/A   Clear
3:55 AM 26.6 °F 21.2 °F 19.4 °F 74% 30.42 in 10.0 mi NW 4.6 mph - N/A   Clear
4:15 AM 26.6 °F 20.0 °F 19.4 °F 74% 30.43 in 10.0 mi NNW 5.8 mph - N/A   Clear
4:35 AM 24.8 °F 19.1 °F 19.4 °F 80% 30.44 in 10.0 mi NW 4.6 mph - N/A   Clear
4:55 AM 24.8 °F 20.5 °F 19.4 °F 80% 30.45 in 10.0 mi NW 3.5 mph - N/A   Clear
5:15 AM 23.0 °F 17.0 °F 19.4 °F 86% 30.45 in 10.0 mi NW 4.6 mph - N/A   Clear
5:35 AM 23.0 °F 17.0 °F 19.4 °F 86% 30.46 in 10.0 mi NW 4.6 mph - N/A   Clear
5:55 AM 23.0 °F 17.0 °F 19.4 °F 86% 30.47 in 10.0 mi NW 4.6 mph - N/A   Clear
6:15 AM 23.0 °F 17.0 °F 19.4 °F 86% 30.48 in 10.0 mi NW 4.6 mph - N/A   Clear
6:35 AM 23.0 °F 17.0 °F 17.6 °F 80% 30.48 in 10.0 mi NW 4.6 mph - N/A   Clear
6:55 AM 23.0 °F 17.0 °F 17.6 °F 80% 30.49 in 10.0 mi NW 4.6 mph - N/A   Clear
7:15 AM 21.2 °F 14.9 °F 17.6 °F 86% 30.51 in 10.0 mi WNW 4.6 mph - N/A   Clear
7:35 AM 21.2 °F 14.9 °F 17.6 °F 86% 30.52 in 10.0 mi WNW 4.6 mph - N/A   Clear
7:55 AM 23.0 °F 15.8 °F 17.6 °F 80% 30.53 in 10.0 mi WNW 5.8 mph - N/A   Clear
8:15 AM 24.8 °F 16.9 °F 19.4 °F 80% 30.53 in 10.0 mi NW 6.9 mph - N/A   Clear
8:35 AM 26.6 °F 17.5 °F 19.4 °F 74% 30.53 in 10.0 mi NNW 9.2 mph - N/A   Clear
8:55 AM 28.4 °F 19.7 °F 21.2 °F 74% 30.54 in 10.0 mi North 9.2 mph - N/A   Clear
9:15 AM 28.4 °F 20.4 °F 21.2 °F 74% 30.55 in 10.0 mi North 8.1 mph 16.1 mph N/A   Clear
9:35 AM 30.2 °F 20.8 °F 21.2 °F 69% 30.55 in 10.0 mi North 11.5 mph 17.3 mph N/A   Clear
9:55 AM 30.2 °F 21.3 °F 21.2 °F 69% 30.55 in 10.0 mi North 10.4 mph 18.4 mph N/A   Clear
10:15 AM 30.2 °F 20.2 °F 21.2 °F 69% 30.56 in 10.0 mi North 12.7 mph 20.7 mph N/A   Clear
10:35 AM 32.0 °F 24.2 °F 23.0 °F 69% 30.56 in 10.0 mi North 9.2 mph 19.6 mph N/A   Clear
10:55 AM 32.0 °F 23.6 °F 23.0 °F 69% 30.57 in 10.0 mi North 10.4 mph - N/A   Clear
11:15 AM 32.0 °F 23.6 °F 23.0 °F 69% 30.58 in 10.0 mi NNW 10.4 mph - N/A   Clear
11:35 AM 32.0 °F 23.6 °F 23.0 °F 69% 30.57 in 10.0 mi NNW 10.4 mph - N/A   Clear
11:55 AM 33.8 °F 25.8 °F 23.0 °F 65% 30.57 in 10.0 mi North 10.4 mph - N/A   Scattered Clouds
12:15 PM 33.8 °F 26.4 °F 23.0 °F 65% 30.57 in 10.0 mi North 9.2 mph - N/A   Scattered Clouds
12:35 PM 33.8 °F 27.7 °F 23.0 °F 65% 30.57 in 10.0 mi NNW 6.9 mph - N/A   Scattered Clouds
12:55 PM 33.8 °F 26.4 °F 23.0 °F 65% 30.56 in 10.0 mi NNW 9.2 mph - N/A   Scattered Clouds
1:15 PM 33.8 °F 27.0 °F 21.2 °F 60% 30.56 in 10.0 mi NW 8.1 mph - N/A   Mostly Cloudy
1:35 PM 33.8 °F 27.0 °F 21.2 °F 60% 30.56 in 10.0 mi NW 8.1 mph - N/A   Overcast
1:55 PM 33.8 °F 27.0 °F 21.2 °F 60% 30.55 in 10.0 mi NNW 8.1 mph - N/A   Overcast
2:15 PM 35.6 °F 29.2 °F 21.2 °F 56% 30.55 in 10.0 mi NNW 8.1 mph - N/A   Mostly Cloudy
2:35 PM 33.8 °F 26.4 °F 21.2 °F 60% 30.56 in 10.0 mi WNW 9.2 mph 19.6 mph N/A   Overcast
2:55 PM 33.8 °F 26.4 °F 21.2 °F 60% 30.56 in 10.0 mi NW 9.2 mph 16.1 mph N/A   Mostly Cloudy
3:15 PM 33.8 °F 24.3 °F 19.4 °F 56% 30.56 in 10.0 mi NW 13.8 mph 19.6 mph N/A   Mostly Cloudy
3:35 PM 33.8 °F 24.8 °F 21.2 °F 60% 30.56 in 10.0 mi WNW 12.7 mph 18.4 mph N/A   Mostly Cloudy
3:55 PM 33.8 °F 26.4 °F 21.2 °F 60% 30.56 in 10.0 mi NW 9.2 mph 17.3 mph N/A   Mostly Cloudy
4:15 PM 32.0 °F 22.1 °F 21.2 °F 64% 30.56 in 10.0 mi WNW 13.8 mph 20.7 mph N/A   Overcast
4:35 PM 32.0 °F 22.5 °F 21.2 °F 64% 30.56 in 10.0 mi WNW 12.7 mph - N/A   Mostly Cloudy
4:55 PM 32.0 °F 23.6 °F 21.2 °F 64% 30.56 in 10.0 mi WNW 10.4 mph - N/A   Scattered Clouds
5:15 PM 32.0 °F 24.8 °F 21.2 °F 64% 30.56 in 10.0 mi WNW 8.1 mph - N/A   Scattered Clouds
5:35 PM 32.0 °F 23.6 °F 21.2 °F 64% 30.55 in 10.0 mi West 10.4 mph - N/A   Mostly Cloudy
5:55 PM 30.2 °F 21.3 °F 23.0 °F 75% 30.55 in 10.0 mi West 10.4 mph - N/A   Scattered Clouds
6:15 PM 30.2 °F 21.3 °F 21.2 °F 69% 30.56 in 10.0 mi WNW 10.4 mph - N/A   Clear
6:35 PM 30.2 °F 23.4 °F 21.2 °F 69% 30.56 in 10.0 mi West 6.9 mph - N/A   Scattered Clouds
6:55 PM 28.4 °F 21.2 °F 21.2 °F 74% 30.56 in 10.0 mi West 6.9 mph - N/A   Clear
7:15 PM 28.4 °F 21.2 °F 21.2 °F 74% 30.57 in 10.0 mi West 6.9 mph - N/A   Scattered Clouds
7:35 PM 28.4 °F 21.2 °F 21.2 °F 74% 30.57 in 10.0 mi WNW 6.9 mph - N/A   Scattered Clouds
7:55 PM 28.4 °F 19.7 °F 19.4 °F 69% 30.58 in 10.0 mi West 9.2 mph - N/A   Scattered Clouds
8:15 PM 28.4 °F 21.2 °F 19.4 °F 69% 30.57 in 10.0 mi West 6.9 mph - N/A   Scattered Clouds
8:35 PM 28.4 °F 20.4 °F 19.4 °F 69% 30.57 in 10.0 mi West 8.1 mph - N/A   Scattered Clouds
8:55 PM 28.4 °F 21.2 °F 19.4 °F 69% 30.57 in 10.0 mi West 6.9 mph - N/A   Scattered Clouds
9:15 PM 28.4 °F 23.3 °F 19.4 °F 69% 30.57 in 10.0 mi West 4.6 mph - N/A   Scattered Clouds
9:35 PM 28.4 °F 22.2 °F 19.4 °F 69% 30.57 in 10.0 mi WSW 5.8 mph - N/A   Scattered Clouds
9:55 PM 28.4 °F 22.2 °F 19.4 °F 69% 30.57 in 10.0 mi West 5.8 mph - N/A   Mostly Cloudy
10:15 PM 26.6 °F 21.2 °F 17.6 °F 69% 30.57 in 10.0 mi WSW 4.6 mph - N/A   Scattered Clouds
10:35 PM 26.6 °F 20.0 °F 17.6 °F 69% 30.57 in 10.0 mi WSW 5.8 mph - N/A   Clear
10:55 PM 26.6 °F 19.1 °F 17.6 °F 69% 30.57 in 10.0 mi WSW 6.9 mph - N/A   Clear
11:15 PM 26.6 °F 19.1 °F 17.6 °F 69% 30.56 in 10.0 mi WSW 6.9 mph - N/A   Clear
11:35 PM 26.6 °F 20.0 °F 17.6 °F 69% 30.56 in 10.0 mi WSW 5.8 mph - N/A   Clear
11:55 PM 26.6 °F 21.2 °F 17.6 °F 69% 30.56 in 10.0 mi WSW 4.6 mph - N/A   Clear